EXS47K LCPH-EGKK

Flight info

Callsign EXS47K
Flight time N/A
Altitude 36000
Route GENOS DCT PEDER DCT LUTIG DCT RDS UL609 MES DCT AMISI DCT AGISA DCT BITLA DCT BONZI DCT RINAV DCT POD DCT GLOMY DCT DARZA DCT KANIN DCT UMVEG DCT KPT DCT VEKIR DCT ADENU L608 LIRSU DCT BUB DCT DENUT L610 TEBRA
Aircraft A21N/M-SDE2E3FGHIRWXY/LB1

Departure

Time 2026-04-22 11:07
Airport Paphos International Airport (LCPH)

Arrival

Time N/A
Airport London Gatwick Airport (EGKK)
Time Latitude Longitude Altitude Speed Heading
2026-04-22 10:39 34.71394 32.48925 44 ft 0 kts 155°
2026-04-22 10:59 34.71405 32.48919 44 ft 4 kts 152°
2026-04-22 11:00 34.71428 32.48902 42 ft 4 kts 140°
2026-04-22 11:00 34.71448 32.48879 43 ft 4 kts 124°
2026-04-22 11:00 34.71456 32.48863 40 ft 1 kts 117°
2026-04-22 11:00 34.71457 32.48862 44 ft 0 kts 117°
2026-04-22 11:02 34.71456 32.48864 40 ft 1 kts 115°
2026-04-22 11:03 34.71459 32.48876 42 ft 2 kts 81°
2026-04-22 11:03 34.71475 32.48892 44 ft 4 kts 39°
2026-04-22 11:03 34.71494 32.48911 44 ft 6 kts 39°
2026-04-22 11:03 34.71533 32.48954 42 ft 9 kts 44°
2026-04-22 11:04 34.71593 32.48998 44 ft 11 kts 22°
2026-04-22 11:04 34.71639 32.49054 45 ft 10 kts 76°
2026-04-22 11:04 34.71614 32.49146 42 ft 13 kts 111°
2026-04-22 11:04 34.71576 32.49269 42 ft 18 kts 109°
2026-04-22 11:05 34.71528 32.49428 40 ft 22 kts 110°
2026-04-22 11:05 34.71472 32.49612 40 ft 25 kts 110°
2026-04-22 11:05 34.71402 32.49769 39 ft 10 kts 157°
2026-04-22 11:05 34.71363 32.49804 41 ft 6 kts 121°
2026-04-22 11:06 34.71379 32.49854 40 ft 7 kts 33°
2026-04-22 11:06 34.71404 32.49832 40 ft 3 kts 278°
2026-04-22 11:06 34.71414 32.49799 40 ft 6 kts 289°
2026-04-22 11:06 34.71458 32.49654 40 ft 48 kts 290°
2026-04-22 11:07 34.71672 32.48957 45 ft 124 kts 291°
2026-04-22 11:07 34.72038 32.47759 238 ft 165 kts 291°
2026-04-22 11:07 34.72423 32.46443 1164 ft 167 kts 287°
2026-04-22 11:07 34.72816 32.45061 1989 ft 177 kts 283°
2026-04-22 11:08 34.72783 32.43520 2516 ft 195 kts 255°
2026-04-22 11:08 34.72377 32.41844 2841 ft 220 kts 253°
2026-04-22 11:08 34.71886 32.39969 3256 ft 245 kts 253°
2026-04-22 11:08 34.71343 32.37925 3867 ft 261 kts 253°
2026-04-22 11:09 34.70790 32.35800 4752 ft 265 kts 254°
2026-04-22 11:09 34.70239 32.33645 5690 ft 267 kts 255°
2026-04-22 11:09 34.69694 32.31477 6639 ft 269 kts 255°
2026-04-22 11:09 34.69146 32.29289 7501 ft 273 kts 255°
2026-04-22 11:10 34.68592 32.27077 8395 ft 275 kts 255°
2026-04-22 11:10 34.68033 32.24842 9272 ft 278 kts 255°
2026-04-22 11:10 34.67467 32.22584 10125 ft 281 kts 256°
2026-04-22 11:10 34.66885 32.20257 10616 ft 298 kts 255°
2026-04-22 11:11 34.66379 32.17727 10865 ft 319 kts 263°
2026-04-22 11:11 34.66201 32.15019 11345 ft 328 kts 272°
2026-04-22 11:11 34.66353 32.12253 12148 ft 329 kts 277°
2026-04-22 11:11 34.66561 32.09479 12916 ft 332 kts 276°
2026-04-22 11:12 34.66757 32.06676 13683 ft 334 kts 276°
2026-04-22 11:12 34.66951 32.03852 14369 ft 337 kts 276°
2026-04-22 11:12 34.67146 32.00999 15005 ft 341 kts 276°
2026-04-22 11:12 34.67344 31.98120 15662 ft 344 kts 276°
2026-04-22 11:13 34.67544 31.95213 16297 ft 347 kts 276°
2026-04-22 11:13 34.67820 31.92292 16926 ft 350 kts 282°
2026-04-22 11:13 34.68474 31.89440 17540 ft 352 kts 291°
2026-04-22 11:13 34.69520 31.86742 18144 ft 355 kts 300°
2026-04-22 11:14 34.70800 31.84159 18688 ft 359 kts 301°
2026-04-22 11:14 34.72084 31.81549 19240 ft 361 kts 300°
2026-04-22 11:14 34.73368 31.78918 19768 ft 364 kts 300°
2026-04-22 11:14 34.74679 31.76225 20300 ft 366 kts 300°
2026-04-22 11:15 34.75963 31.73585 20820 ft 369 kts 300°
2026-04-22 11:15 34.77291 31.70854 21344 ft 372 kts 300°
2026-04-22 11:15 34.78610 31.68140 21857 ft 374 kts 300°
2026-04-22 11:15 34.79939 31.65402 22363 ft 377 kts 300°
2026-04-22 11:16 34.81277 31.62644 22866 ft 380 kts 300°
2026-04-22 11:16 34.82624 31.59866 23352 ft 383 kts 300°
2026-04-22 11:16 34.83980 31.57068 23816 ft 385 kts 300°
2026-04-22 11:16 34.85342 31.54253 24238 ft 387 kts 300°
2026-04-22 11:17 34.86709 31.51428 24665 ft 388 kts 300°
2026-04-22 11:17 34.88081 31.48588 25087 ft 390 kts 300°
2026-04-22 11:17 34.89458 31.45735 25493 ft 392 kts 300°
2026-04-22 11:17 34.90842 31.42867 25885 ft 393 kts 299°
2026-04-22 11:18 34.92229 31.39991 26273 ft 395 kts 299°
2026-04-22 11:18 34.93623 31.37097 26653 ft 397 kts 299°
2026-04-22 11:18 34.95021 31.34192 27022 ft 398 kts 299°
2026-04-22 11:18 34.96425 31.31271 27376 ft 400 kts 299°
2026-04-22 11:19 34.97833 31.28341 27738 ft 402 kts 299°
2026-04-22 11:19 34.99247 31.25395 28065 ft 403 kts 299°
2026-04-22 11:19 35.00664 31.22439 28391 ft 405 kts 299°
2026-04-22 11:19 35.02087 31.19470 28718 ft 406 kts 299°
2026-04-22 11:20 35.03514 31.16491 29021 ft 408 kts 299°
2026-04-22 11:20 35.04947 31.13494 29318 ft 409 kts 299°
2026-04-22 11:20 35.06383 31.10490 29600 ft 411 kts 299°
2026-04-22 11:20 35.07840 31.07439 29903 ft 412 kts 299°
2026-04-22 11:21 35.09267 31.04448 30172 ft 413 kts 299°
2026-04-22 11:21 35.10733 31.01372 30435 ft 414 kts 299°
2026-04-22 11:21 35.12184 30.98326 30703 ft 415 kts 299°
2026-04-22 11:21 35.13635 30.95278 30973 ft 416 kts 299°
2026-04-22 11:22 35.15030 30.92344 31258 ft 415 kts 299°
2026-04-22 11:22 35.16479 30.89293 31603 ft 414 kts 299°
2026-04-22 11:22 35.17893 30.86242 31958 ft 412 kts 297°
2026-04-22 11:22 35.19196 30.83133 32311 ft 410 kts 296°
2026-04-22 11:23 35.20465 30.80022 32643 ft 408 kts 296°
2026-04-22 11:23 35.21738 30.76921 32973 ft 407 kts 296°
2026-04-22 11:23 35.23005 30.73837 33284 ft 406 kts 296°
2026-04-22 11:23 35.24268 30.70759 33590 ft 404 kts 296°
2026-04-22 11:24 35.25525 30.67691 33905 ft 403 kts 296°
2026-04-22 11:24 35.26777 30.64632 34163 ft 401 kts 296°
2026-04-22 11:24 35.28025 30.61580 34371 ft 401 kts 295°
2026-04-22 11:24 35.29271 30.58529 34586 ft 400 kts 295°
2026-04-22 11:25 35.30515 30.55480 34771 ft 400 kts 295°
2026-04-22 11:25 35.31755 30.52438 34953 ft 400 kts 295°
2026-04-22 11:25 35.33001 30.49381 35130 ft 400 kts 295°
2026-04-22 11:25 35.34239 30.46338 35330 ft 400 kts 295°
2026-04-22 11:26 35.35477 30.43292 35503 ft 399 kts 295°
2026-04-22 11:26 35.36713 30.40249 35668 ft 399 kts 295°
2026-04-22 11:26 35.37950 30.37202 35835 ft 399 kts 295°
2026-04-22 11:26 35.39183 30.34161 35994 ft 399 kts 295°
2026-04-22 11:27 35.40416 30.31118 36024 ft 398 kts 295°
2026-04-22 11:27 35.42871 30.25046 36027 ft 398 kts 295°
2026-04-22 11:28 35.44894 30.20034 36027 ft 398 kts 295°
2026-04-22 11:28 35.47403 30.13810 36027 ft 398 kts 295°
2026-04-22 11:29 35.49851 30.07725 36027 ft 398 kts 295°
2026-04-22 11:29 35.52297 30.01633 36026 ft 398 kts 295°
2026-04-22 11:30 35.54813 29.95575 36023 ft 398 kts 296°
2026-04-22 11:30 35.57444 29.89600 36024 ft 398 kts 297°
2026-04-22 11:31 35.60063 29.83604 36024 ft 398 kts 296°
2026-04-22 11:31 35.62663 29.77598 36024 ft 398 kts 296°
2026-04-22 11:32 35.65259 29.71581 36022 ft 398 kts 296°
2026-04-22 11:32 35.67854 29.65558 36022 ft 399 kts 296°
2026-04-22 11:33 35.70464 29.59487 36023 ft 399 kts 296°
2026-04-22 11:33 35.73054 29.53453 36026 ft 399 kts 296°
2026-04-22 11:34 35.75644 29.47410 36026 ft 399 kts 296°
2026-04-22 11:34 35.78230 29.41362 36028 ft 399 kts 296°
2026-04-22 11:35 35.80815 29.35306 36028 ft 399 kts 296°
2026-04-22 11:35 35.83398 29.29245 36028 ft 399 kts 296°
2026-04-22 11:36 35.85968 29.23203 36029 ft 399 kts 296°
2026-04-22 11:36 35.88544 29.17135 36029 ft 400 kts 296°
2026-04-22 11:37 35.91117 29.11063 36024 ft 399 kts 296°
2026-04-22 11:37 35.93687 29.04989 36022 ft 399 kts 296°
2026-04-22 11:38 35.96256 28.98905 36022 ft 399 kts 296°
2026-04-22 11:38 35.99252 28.91794 36021 ft 399 kts 296°